Wind_Speed
22 22 22 22 23 23 23 24 24 24 24 24 24 25 24 24 23 22 21 20 19 18 18 18 18 17 16 15 17 19 19 21 19 21 27 22 15 14 17 17 13 12 15 20 18 11 13 17 18 19 20 21 20 19 18 18 19 11 3 2 5 4 4 3 5 4 5 4 6 5 9 9 4 12 16 20 16 19 21 21 25 22 27 32 32 38 39 39
22 22 22 23 23 23 24 24 24 24 24 25 25 25 25 25 24 22 22 21 20 18 17 17 18 17 15 15 16 17 19 20 21 28 31 19 13 10 11 15 16 15 14 19 23 18 17 19 20 20 21 20 19 20 17 18 19 10 3 4 5 4 5 4 7 5 5 6 8 10 5 10 12 12 15 16 14 14 15 18 27 27 29 33 37 40 38 40
23 23 23 23 24 24 24 24 24 24 24 25 25 26 26 26 24 23 22 21 20 18 17 16 17 16 15 14 15 16 17 18 23 29 26 19 22 18 12 13 14 17 18 18 21 21 19 18 19 21 22 18 18 20 18 17 16 13 9 4 5 6 6 6 8 7 8 8 8 11 6 6 8 20 15 12 15 11 11 17 25 28 33 37 40 40 40 40
23 24 24 24 24 24 24 24 25 25 25 25 26 26 26 26 25 23 22 21 21 19 17 16 16 15 14 14 14 13 13 16 18 17 12 10 18 22 19 17 16 17 20 17 18 21 19 18 19 21 20 15 18 21 16 16 14 11 11 5 6 8 6 6 8 8 7 7 8 11 9 12 5 24 16 13 14 8 12 22 29 33 38 40 40 42 40 39
24 24 24 24 24 25 25 25 25 25 25 25 26 27 27 26 25 24 21 21 21 20 17 15 15 14 13 13 13 10 7 6 4 2 4 5 7 17 19 17 18 20 22 18 17 21 20 20 21 23 19 11 14 16 14 20 17 8 10 11 9 9 6 7 9 7 4 2 5 11 8 8 7 17 17 16 10 7 16 27 35 38 42 42 42 41 38 38
25 25 25 25 25 25 25 26 25 25 25 25 26 27 27 26 25 24 21 20 20 20 17 15 14 13 13 12 13 10 5 3 4 2 1 1 2 14 18 15 16 18 21 20 18 21 21 23 22 21 16 10 11 11 14 23 20 8 8 12 13 14 9 6 9 8 7 4 4 10 8 5 2 5 14 18 12 16 23 31 37 38 41 42 42 41 38 37
26 26 26 26 26 26 26 26 26 26 26 26 26 26 26 26 25 24 21 19 19 19 17 15 13 12 11 11 13 10 14 16 11 7 3 4 4 9 17 17 16 17 19 20 21 21 21 24 22 19 14 9 11 12 16 22 22 12 6 8 14 18 12 9 12 11 14 12 12 17 9 11 8 4 14 19 19 26 29 33 38 37 39 39 40 40 38 37
27 27 27 27 27 27 27 27 27 26 26 26 26 26 26 26 25 24 21 19 18 18 16 14 11 10 10 11 11 9 20 19 7 10 6 2 2 3 14 22 20 19 20 21 23 23 22 23 23 20 11 9 12 13 17 18 17 13 9 10 13 17 16 15 14 14 16 15 17 16 11 8 13 8 10 17 25 32 33 35 36 37 38 38 39 38 37 36
28 28 28 28 28 28 28 28 27 27 27 27 26 26 26 25 25 23 21 19 17 16 15 13 11 10 9 11 8 6 17 10 1 9 9 7 6 4 9 21 25 24 23 22 23 24 23 22 24 22 12 12 15 14 18 14 9 12 14 15 14 17 19 16 14 15 16 15 17 9 10 12 10 10 8 18 28 34 36 36 36 37 37 36 37 36 37 36
29 29 28 28 28 28 28 28 28 27 27 27 26 26 25 24 24 23 20 19 17 16 14 13 11 9 9 10 7 6 9 3 3 7 10 10 10 8 9 16 24 28 27 25 25 25 25 22 22 24 17 14 15 14 17 13 11 15 19 19 16 18 20 18 16 17 16 15 17 13 3 15 15 12 9 22 28 35 37 35 35 37 36 35 35 35 37 36
29 28 28 28 27 28 28 28 28 28 27 27 26 25 24 23 22 21 20 17 16 15 14 13 10 9 10 10 12 10 8 2 5 6 12 12 12 13 13 13 18 27 30 28 27 27 26 24 21 21 16 12 13 14 17 19 19 19 18 17 16 17 20 20 16 16 14 12 20 16 8 10 13 9 11 28 30 34 36 34 35 34 34 34 33 35 36 35
29 29 28 28 28 28 28 29 29 28 29 28 26 25 23 22 21 20 18 16 16 15 13 12 10 11 10 13 25 17 6 4 2 2 11 11 11 13 14 16 15 22 30 30 27 26 25 24 23 20 14 11 10 9 12 20 23 22 18 11 10 11 12 15 15 17 16 9 19 16 5 5 6 6 14 36 33 32 34 33 34 32 33 33 33 35 35 35
29 29 28 28 28 28 28 29 29 29 29 28 27 24 22 21 20 19 17 15 15 14 13 11 10 13 10 15 30 23 12 10 8 9 15 13 12 10 11 17 14 15 25 31 27 23 24 24 24 24 20 14 10 8 11 18 20 17 14 7 6 7 7 13 16 20 18 11 18 13 3 6 5 9 18 38 33 30 31 31 33 32 32 33 32 35 35 34
29 29 29 28 28 28 28 28 29 29 29 28 27 23 20 20 20 20 18 16 16 15 13 10 9 10 11 19 30 25 18 15 15 17 20 18 19 14 10 15 16 14 17 26 26 20 22 23 24 24 22 19 13 12 12 13 13 9 8 6 5 4 4 11 14 16 14 13 19 13 3 7 7 11 25 39 33 32 30 29 31 31 32 32 32 34 35 34
31 31 31 30 30 29 29 29 29 29 28 28 26 21 18 19 20 21 19 18 17 14 11 8 8 7 10 23 28 16 11 17 22 22 21 17 20 21 16 17 20 18 15 20 22 20 21 22 23 20 17 19 16 12 8 7 7 5 4 4 4 4 3 8 13 13 11 10 16 12 3 5 8 16 32 38 36 34 30 29 30 31 33 32 33 35 35 34
33 34 33 33 32 30 30 29 28 27 27 26 24 19 15 19 23 22 18 15 13 11 8 4 4 5 6 15 16 7 8 18 25 26 24 16 18 22 20 20 21 20 19 18 19 20 21 21 22 19 15 13 10 7 5 5 6 4 4 4 3 6 5 6 9 13 14 11 13 12 5 4 6 17 34 37 37 34 28 28 28 31 34 33 33 37 35 33
34 35 35 35 33 32 31 29 27 25 25 23 22 19 15 23 27 16 12 12 12 11 6 2 3 6 12 12 11 12 13 17 20 23 26 22 20 21 20 23 23 21 22 21 20 21 21 20 17 15 13 9 5 5 6 7 6 4 5 5 6 7 7 7 8 11 17 13 12 13 9 9 5 17 32 34 36 32 26 26 27 28 33 34 35 37 36 34
35 36 36 36 34 33 31 28 25 23 23 21 21 20 16 23 25 9 11 18 16 14 5 3 2 4 11 13 13 14 9 10 15 20 26 26 24 22 21 23 24 23 23 20 21 22 20 18 12 7 8 8 7 8 8 7 7 6 6 6 6 8 8 9 9 10 17 17 13 14 12 11 5 18 27 30 33 29 24 26 26 26 30 33 35 37 36 36
36 36 36 36 35 33 31 27 23 21 22 20 20 21 16 23 23 5 8 19 15 10 7 6 7 6 11 17 20 18 13 14 16 19 24 26 26 25 23 21 23 26 20 13 16 21 16 10 9 8 8 11 10 11 10 7 8 11 10 7 8 8 8 9 11 11 15 18 13 13 13 12 8 17 21 27 33 30 26 28 27 25 27 30 33 36 36 36
36 36 36 36 36 33 31 26 21 20 20 22 25 23 20 25 18 2 11 23 21 19 21 22 22 24 27 33 30 21 18 17 16 19 23 24 26 27 26 23 22 22 16 9 11 18 16 7 9 11 10 12 13 14 13 10 11 14 12 9 10 10 8 10 13 13 12 15 13 13 13 12 12 15 19 27 32 27 25 25 26 26 27 29 31 34 37 36
36 36 36 36 35 33 31 25 20 19 18 22 26 22 21 24 14 10 25 30 25 23 28 33 33 34 37 41 37 26 21 18 15 16 21 26 27 24 24 23 16 13 13 12 10 14 14 10 12 14 12 12 13 14 14 13 14 14 12 10 8 8 8 11 14 15 11 11 12 13 12 12 14 14 18 24 23 21 24 23 24 28 28 31 31 32 37 36
36 36 35 35 34 33 31 25 20 18 17 19 23 20 20 22 16 19 27 25 25 29 33 37 38 39 41 41 40 33 23 18 20 19 18 28 29 21 19 20 13 9 12 13 10 9 10 13 16 14 12 13 13 14 16 16 16 12 10 9 7 7 7 11 15 15 10 8 9 14 12 10 12 14 15 21 19 19 29 28 24 29 29 30 32 32 35 35
35 35 35 33 32 32 29 24 20 18 16 17 19 20 22 24 21 23 24 19 26 37 37 40 41 42 42 38 38 35 21 16 21 23 20 27 29 26 19 15 13 11 12 13 11 9 10 13 15 13 12 15 15 14 16 15 13 10 9 8 8 10 8 6 11 14 10 7 8 12 11 8 9 11 10 21 28 24 31 34 30 32 32 33 36 35 36 37
34 34 33 32 31 30 28 23 19 16 14 14 17 21 24 26 24 26 25 15 16 30 33 33 37 40 41 35 33 33 25 21 20 21 23 28 28 26 20 15 14 12 12 16 17 14 13 9 12 15 15 15 16 15 15 11 10 11 12 9 9 12 13 9 8 11 9 8 10 11 8 5 7 10 7 15 27 26 29 33 31 34 37 39 40 38 39 40
34 33 33 32 30 30 27 19 16 16 11 13 19 24 27 27 24 26 23 11 8 16 20 15 21 28 31 30 27 24 21 24 29 26 23 30 31 21 17 17 14 12 14 18 17 15 15 11 14 18 16 16 16 14 15 12 8 11 14 14 13 13 15 15 13 9 5 6 10 12 6 5 7 11 9 10 15 18 23 25 27 34 37 39 39 38 39 40
33 31 32 31 29 31 27 17 17 18 13 16 24 28 30 27 25 25 16 6 5 8 6 1 7 7 11 20 24 19 13 19 33 35 26 28 34 23 14 14 11 12 15 14 11 9 11 13 12 15 17 18 16 13 15 15 8 8 12 15 18 16 14 16 15 9 4 4 9 14 8 4 7 10 12 13 14 16 20 20 24 31 33 36 39 40 41 40
32 30 30 30 28 28 25 19 18 18 16 22 27 30 31 25 24 23 10 2 4 5 2 3 1 5 7 10 22 16 6 8 21 36 34 27 33 30 16 11 9 10 11 9 9 8 10 16 15 15 17 15 14 12 13 16 11 6 10 15 18 17 17 16 13 9 4 3 6 13 10 4 5 9 11 13 14 14 15 18 23 26 30 36 39 41 43 44
30 29 28 28 25 22 21 19 19 19 19 24 29 30 28 24 24 19 5 1 5 6 5 4 5 11 21 8 25 21 7 12 13 27 38 29 30 30 16 12 11 10 13 10 10 9 11 17 17 16 15 11 12 12 12 15 12 8 10 13 16 17 17 16 12 8 6 4 4 8 9 5 3 6 9 12 13 12 12 16 21 25 30 36 40 42 44 46
30 28 27 26 21 17 15 14 17 20 21 25 28 28 26 25 22 10 1 3 5 6 10 12 13 18 32 19 21 24 14 12 8 19 37 31 30 28 14 14 13 9 16 16 10 8 9 16 18 15 13 10 11 13 14 15 11 9 12 11 10 14 15 14 11 6 6 5 5 6 6 5 3 5 8 10 11 12 12 12 16 27 35 37 39 43 44 46
30 27 25 21 16 17 15 11 13 18 22 27 28 28 27 21 12 3 2 3 3 10 17 16 18 22 29 22 4 15 15 14 11 14 31 27 29 30 18 18 17 9 11 15 13 11 10 16 19 15 12 10 11 13 16 16 13 11 11 10 8 8 9 9 8 5 5 6 8 8 7 5 4 5 7 10 12 13 13 10 11 23 34 37 39 43 44 44
29 26 22 15 13 17 17 15 14 16 23 28 27 26 23 12 3 2 3 5 5 13 19 15 19 24 23 19 10 9 10 14 15 10 17 16 19 22 15 14 13 8 7 10 13 12 13 14 12 13 17 14 10 12 15 16 15 11 8 8 7 5 4 4 4 6 7 6 7 9 9 7 5 5 7 8 13 16 15 14 14 16 27 36 39 42 43 44
28 24 15 10 10 12 15 17 16 17 24 26 24 22 14 4 1 2 5 8 7 8 14 15 19 21 21 19 13 12 9 10 13 11 7 10 11 12 12 10 7 8 9 8 8 9 13 14 9 11 20 20 12 8 10 12 13 11 7 7 6 3 4 4 4 5 7 6 5 7 9 7 5 5 8 6 8 14 15 17 19 18 28 38 40 43 44 45
27 20 10 7 9 10 14 17 14 17 23 24 21 16 6 1 2 3 6 7 7 10 12 16 21 21 19 16 12 13 14 7 10 12 10 9 10 11 15 13 10 10 9 6 7 8 9 12 14 14 14 19 16 8 7 9 10 11 9 7 7 5 5 6 4 3 4 5 5 7 8 6 5 4 7 8 6 10 14 22 25 24 36 44 45 47 46 45
26 17 9 8 9 9 12 13 13 17 21 21 17 10 3 2 2 6 8 6 8 14 13 15 22 22 15 11 10 10 12 11 6 8 11 9 9 9 13 17 16 11 6 5 6 8 9 9 14 16 8 14 18 12 7 8 8 11 10 7 7 6 5 5 4 3 3 3 6 9 7 4 5 4 7 8 9 12 12 21 26 26 41 47 44 46 44 43
25 14 9 10 9 10 12 12 13 16 18 17 11 4 3 4 3 6 8 7 8 11 14 17 18 17 13 9 10 15 13 11 15 14 10 8 8 9 8 13 17 13 7 6 7 7 11 9 10 14 12 12 18 15 10 9 8 8 8 7 7 7 4 3 4 4 4 1 3 7 5 2 3 5 6 8 10 14 14 15 19 21 39 44 39 42 43 43
25 16 8 7 8 8 10 12 14 14 15 14 6 2 3 4 5 6 7 8 9 11 15 15 12 10 11 9 11 19 18 13 16 14 9 8 8 12 10 10 15 16 11 6 5 6 9 8 8 13 17 16 16 15 14 11 6 5 9 10 6 7 5 3 3 3 4 2 3 4 5 3 4 7 7 8 11 14 15 13 13 16 35 41 36 39 42 43
26 21 11 6 6 6 9 14 14 13 15 11 4 4 4 4 6 7 7 9 10 12 12 9 8 8 11 10 10 16 19 15 14 11 9 12 8 4 6 8 13 15 18 14 8 6 6 6 8 14 18 20 18 17 16 14 8 6 8 9 5 5 6 4 2 3 4 4 4 7 9 6 5 6 8 11 11 12 15 15 13 12 27 35 37 41 43 44
27 26 13 6 5 4 13 17 13 14 15 7 3 5 4 5 7 7 8 10 10 10 8 6 6 7 10 11 10 15 16 12 12 11 9 9 7 10 12 4 2 6 12 16 11 8 8 6 8 14 17 18 17 15 13 15 15 9 7 9 7 5 7 5 4 4 5 5 4 8 11 9 7 7 9 14 15 13 12 16 17 13 17 26 37 45 45 45
28 26 11 6 10 8 16 18 14 16 13 4 2 4 5 7 10 12 11 9 8 8 7 6 6 7 8 11 11 12 12 10 11 10 8 7 7 13 18 14 16 26 26 19 10 9 10 5 5 12 17 15 12 11 10 12 15 11 7 9 8 6 5 5 4 2 4 4 4 6 7 6 6 8 13 17 17 15 11 11 15 14 16 25 35 42 45 44
26 20 10 10 18 17 22 21 16 13 6 3 3 3 5 6 10 17 16 10 6 6 6 7 8 7 7 10 11 9 9 10 11 9 7 9 12 13 16 18 18 25 31 26 13 8 9 7 6 8 13 14 10 10 12 13 13 11 8 8 8 6 4 4 4 3 3 3 3 4 5 5 6 7 13 17 16 15 12 10 10 11 18 30 35 39 43 46
24 13 12 13 18 20 24 21 13 6 2 3 3 3 7 7 8 13 16 14 10 8 8 8 8 8 8 9 9 8 8 8 10 9 7 9 10 7 13 20 20 22 25 21 13 8 5 7 8 8 7 10 12 13 14 15 14 12 8 6 9 8 6 6 6 5 5 3 2 3 3 6 6 4 9 16 15 14 14 11 8 9 17 30 37 39 42 47
18 12 14 15 23 26 20 10 9 6 1 3 5 5 9 10 9 9 12 13 11 9 9 9 8 8 8 8 9 9 8 7 9 9 8 11 9 5 15 28 28 24 19 13 12 14 10 5 8 9 7 7 12 16 16 16 16 13 10 7 8 9 8 6 5 6 6 4 5 2 3 6 6 4 6 15 14 11 13 12 9 10 17 26 37 42 42 46
14 18 19 18 26 29 15 3 7 5 4 8 11 10 11 11 9 8 10 10 9 8 8 7 8 9 8 9 10 10 9 7 8 9 11 13 11 12 22 29 29 24 16 9 11 17 14 5 5 8 8 9 10 14 17 16 15 12 11 10 7 9 10 6 4 6 6 5 5 2 3 6 6 7 2 10 12 11 13 14 11 11 17 22 36 46 42 41
18 23 20 17 24 24 12 5 6 4 5 10 11 12 13 12 9 8 9 8 8 7 7 6 8 8 9 10 10 10 10 7 5 9 11 9 12 20 26 27 25 18 12 11 12 13 11 5 3 5 6 6 8 11 14 15 14 9 9 12 11 10 13 9 4 4 5 7 8 4 3 6 6 6 7 9 11 12 13 15 15 15 18 18 33 48 45 40
19 15 14 19 26 22 12 9 10 7 8 11 11 12 13 10 9 9 9 10 9 7 6 7 10 10 9 9 9 9 9 7 5 7 8 8 13 19 22 25 25 18 18 25 26 16 9 6 4 4 5 5 4 6 8 11 11 8 9 15 15 14 13 11 5 4 4 7 8 6 4 6 6 3 7 7 6 7 10 13 14 17 19 16 27 45 48 43
14 8 9 17 22 19 15 18 18 11 8 10 9 10 11 9 10 11 10 9 8 8 8 7 9 10 9 9 10 9 8 7 5 6 7 9 9 12 21 27 26 24 26 31 31 18 6 6 7 6 6 6 5 5 5 13 13 10 12 15 17 17 13 9 7 5 5 5 6 6 6 5 3 3 6 3 3 3 6 7 7 10 11 10 23 40 47 47
9 6 8 12 13 13 13 18 19 14 12 13 8 7 11 11 10 10 9 9 9 10 8 6 8 9 9 11 11 10 9 8 6 7 9 10 8 13 25 27 22 24 25 25 27 17 5 6 8 9 10 9 11 15 9 14 19 17 16 14 16 20 17 10 8 8 6 6 5 7 8 7 5 3 4 6 6 5 6 8 9 13 14 10 26 40 44 47
6 7 12 12 7 7 9 13 16 15 16 15 9 8 12 12 10 8 8 10 12 9 5 4 8 10 10 11 10 9 9 7 7 7 7 9 10 12 19 21 18 17 17 17 20 15 5 6 8 10 13 12 12 16 13 7 11 17 18 16 15 19 22 16 9 9 9 7 5 8 10 9 7 6 6 7 7 7 9 13 15 18 19 15 26 37 35 34
7 8 12 12 9 10 13 16 18 16 13 12 9 7 9 10 11 12 10 10 10 8 5 5 9 11 12 11 9 7 7 6 6 7 6 8 10 8 10 15 15 15 15 13 14 13 6 6 12 15 14 13 11 12 11 8 3 7 13 18 16 15 21 20 11 8 10 8 7 8 11 10 8 7 7 4 7 15 18 20 20 22 24 21 22 27 25 24
8 8 10 12 11 14 15 14 14 11 10 10 8 6 7 8 9 9 10 11 10 7 6 8 10 11 12 11 9 8 7 5 6 7 8 7 7 6 5 6 10 15 17 11 10 14 10 7 14 16 9 7 9 8 11 12 7 2 4 14 18 14 18 20 15 9 8 8 9 9 9 7 5 7 5 5 15 19 17 16 17 20 23 22 21 24 26 25
12 12 14 13 9 9 11 11 10 8 6 7 7 7 9 11 12 11 10 10 12 9 8 12 12 10 10 10 9 10 10 8 8 10 11 10 7 6 5 5 10 14 14 10 9 12 11 9 12 11 6 5 5 5 12 14 8 5 5 8 11 9 10 16 15 11 7 9 10 7 6 4 4 8 9 10 15 15 10 11 17 21 21 19 17 19 22 26
15 16 16 11 6 5 8 9 8 7 6 7 8 10 11 14 18 17 9 6 11 14 14 15 14 9 7 8 9 11 14 14 15 14 14 15 14 11 11 13 14 12 10 10 9 9 9 9 9 8 6 6 6 5 10 10 8 4 5 3 2 1 4 12 16 12 7 9 9 6 5 7 5 9 11 11 13 12 10 13 20 24 23 23 20 16 19 25
Wind_Direction
6 3 1 359 357 354 352 351 348 346 343 338 335 332 331 331 331 330 328 323 317 312 307 304 301 298 296 295 292 290 292 288 286 276 264 263 265 254 243 237 225 214 208 208 204 196 190 185 186 183 190 203 212 222 220 218 219 208 158 228 252 255 245 280 297 323 331 334 2 338 108 99 195 168 136 123 137 155 161 161 148 145 142 145 147 147 150 150
6 4 2 359 358 355 354 352 350 348 344 340 336 332 330 329 330 330 330 328 321 315 309 304 300 296 294 293 291 291 291 290 290 274 258 251 261 242 205 216 222 216 207 208 203 193 190 189 188 189 199 207 212 218 223 221 217 208 162 230 230 243 248 245 286 303 310 325 345 318 114 148 201 157 124 130 148 159 154 144 134 132 136 140 145 149 152 151
5 3 1 359 357 354 353 352 350 349 346 343 338 334 331 329 330 328 329 328 324 319 310 304 300 295 292 289 288 290 293 297 292 279 270 256 247 237 207 204 216 219 213 209 202 192 190 193 190 191 202 211 213 213 217 220 216 208 201 235 228 233 256 247 277 288 296 315 337 322 326 290 199 140 134 137 134 135 126 128 132 133 137 143 148 152 155 154
3 1 358 356 354 352 351 350 349 348 346 343 340 337 334 332 330 328 327 325 324 323 314 306 299 294 290 285 285 289 299 303 292 288 298 274 236 228 227 221 221 221 212 209 199 190 192 198 193 194 204 212 218 218 216 216 213 201 196 228 228 217 243 241 250 268 302 331 331 318 314 307 176 143 148 142 133 133 128 133 138 140 143 147 151 155 158 157
1 358 356 354 352 351 349 348 347 346 344 342 340 338 335 335 331 329 327 323 323 323 318 307 301 295 285 279 278 279 302 325 296 300 324 303 227 208 214 215 214 214 206 203 192 189 199 207 201 198 206 217 219 221 225 218 214 207 207 225 217 198 213 227 232 252 296 14 323 300 277 267 178 143 148 151 147 147 146 143 142 146 149 151 153 157 161 159
359 356 355 353 350 349 348 347 346 344 342 340 340 336 336 334 332 332 327 324 321 321 321 310 304 293 280 274 271 260 237 236 199 151 32 339 148 183 192 193 191 196 200 198 190 192 205 214 211 204 205 217 219 216 226 220 216 222 220 211 190 189 196 214 231 250 255 206 193 252 242 186 129 123 157 159 150 150 153 147 146 150 152 153 155 159 163 162
357 356 354 352 350 349 347 347 346 344 342 340 339 335 334 333 333 333 328 325 320 320 321 313 306 288 280 268 263 246 231 248 239 200 132 106 106 165 180 182 174 174 189 196 195 196 209 216 216 213 205 210 223 222 228 223 218 220 226 205 180 188 198 207 227 239 241 226 216 247 250 162 168 207 171 156 147 149 148 146 149 152 153 155 157 161 165 164
357 356 354 352 349 349 347 347 346 344 343 342 339 335 333 332 331 331 328 325 320 320 318 315 308 283 280 261 255 249 244 257 234 194 203 155 75 162 182 185 185 184 188 196 197 195 208 218 215 214 211 211 218 223 233 232 224 216 222 223 183 186 201 202 216 230 237 235 228 254 291 205 186 190 166 142 141 143 143 146 149 151 154 158 160 164 166 166
356 355 354 352 349 348 347 347 346 344 343 342 340 336 333 332 330 330 327 323 319 318 314 314 304 279 272 255 240 252 258 271 140 197 222 245 250 247 202 191 193 197 200 201 199 198 209 220 216 214 216 220 217 224 235 235 229 211 213 223 191 184 202 202 205 222 239 239 210 205 305 276 202 175 137 120 132 138 143 146 148 152 156 160 163 167 167 167
355 354 354 352 349 348 346 347 346 344 344 343 341 338 335 333 330 328 325 322 318 314 313 309 297 276 264 250 212 237 269 7 22 236 209 222 228 218 212 200 197 200 203 203 201 202 211 219 215 215 224 230 223 227 234 237 241 225 215 222 210 187 191 196 199 210 229 239 209 165 230 264 227 210 126 116 132 137 143 147 151 157 158 163 166 169 170 170
356 356 355 353 350 348 347 348 347 346 346 344 343 339 335 332 328 327 323 320 315 311 311 302 290 271 261 237 209 233 259 96 21 270 219 217 218 214 211 204 204 203 201 201 202 202 210 219 217 215 222 229 235 238 237 243 255 254 235 228 221 189 176 185 189 206 215 236 229 189 167 235 230 242 132 137 146 142 146 150 155 161 160 165 168 170 173 172
357 357 356 354 351 349 348 348 348 347 346 346 345 341 336 331 327 325 322 320 314 312 308 298 282 262 260 235 225 235 263 218 76 177 215 228 228 227 221 212 213 208 202 201 202 203 209 221 224 224 221 220 237 251 250 248 255 264 259 245 222 194 177 183 181 205 209 217 230 203 164 222 210 267 157 148 152 147 149 153 158 164 163 168 170 171 176 175
357 357 357 355 353 351 349 349 349 347 347 348 348 344 336 329 326 325 323 321 314 311 304 291 280 263 247 239 244 259 281 234 202 195 206 221 224 224 224 217 216 211 207 205 203 205 213 223 230 235 235 230 228 235 255 258 254 258 261 259 227 208 198 196 191 207 207 206 219 201 185 205 187 253 169 146 150 151 152 157 161 165 165 169 170 172 178 179
357 356 356 355 353 351 350 350 349 347 348 350 350 345 336 327 324 327 327 320 313 308 298 283 278 262 229 251 268 278 277 243 227 215 199 207 216 210 207 205 209 217 213 209 207 209 219 227 234 240 242 243 250 250 256 261 254 255 256 250 227 213 199 200 205 215 210 200 209 206 209 189 189 209 159 144 154 155 155 163 163 164 166 170 172 173 177 181
357 356 356 357 355 352 351 351 350 348 349 351 352 347 337 335 334 333 327 315 313 306 290 273 267 257 241 270 285 292 271 242 230 210 186 199 212 201 196 193 201 213 213 209 209 216 225 228 233 238 241 245 257 263 263 269 261 254 247 248 210 201 229 212 206 210 215 200 200 215 249 193 197 180 157 152 158 158 159 164 163 164 167 171 173 174 178 183
357 355 355 356 355 353 352 352 351 350 352 355 356 352 344 347 345 336 326 317 323 313 280 271 288 274 263 282 292 290 250 233 219 198 184 195 207 203 200 195 199 205 208 211 213 222 228 229 229 231 235 240 246 247 255 268 264 242 214 242 224 196 218 234 213 198 206 207 192 203 228 236 219 167 162 160 157 158 160 161 167 167 167 173 173 174 179 183
356 355 354 354 354 353 353 353 354 354 357 360 1 359 349 351 352 347 352 358 351 337 289 235 354 286 265 266 278 275 258 242 228 205 194 193 200 212 207 196 197 201 207 211 216 222 228 230 224 221 226 229 226 219 233 235 236 247 211 222 243 220 205 215 228 204 199 205 192 186 201 240 227 150 160 161 153 156 158 161 172 170 167 173 173 174 179 182
355 355 353 353 353 354 353 353 355 357 1 4 3 359 347 351 357 5 23 9 353 347 328 206 146 268 267 261 270 282 270 253 249 221 205 201 199 211 214 201 195 198 207 210 214 218 223 226 218 208 214 215 219 211 217 220 212 235 226 202 224 242 235 211 219 212 193 197 196 176 190 231 194 138 155 158 150 156 160 163 173 173 169 170 172 175 179 183
354 353 352 352 352 354 353 352 357 360 0 6 4 360 354 352 355 18 25 357 338 328 304 246 209 232 288 282 274 281 281 274 264 228 210 209 206 210 218 212 197 195 203 205 204 207 211 219 216 214 208 204 214 216 220 222 214 232 236 211 202 222 246 229 229 227 188 185 193 177 184 213 174 146 156 158 158 163 166 167 175 180 175 171 172 175 179 183
352 351 351 352 350 352 354 352 359 2 357 358 358 1 4 358 356 5 333 321 299 283 275 269 259 256 273 277 272 277 280 277 263 224 206 205 204 208 218 218 202 194 202 205 192 198 205 220 222 218 211 203 208 218 228 230 228 238 242 233 213 205 227 234 242 244 193 173 189 183 182 197 181 163 163 165 167 168 169 170 175 181 179 175 175 175 179 184
350 350 350 351 349 349 353 351 356 5 1 357 357 5 10 3 356 323 320 311 293 281 268 267 265 258 262 265 262 270 283 286 275 238 207 199 199 201 213 216 206 196 201 203 194 194 202 226 228 216 213 210 208 212 222 232 235 239 245 253 237 212 217 218 236 249 212 178 186 182 180 193 190 180 171 170 169 166 172 175 176 179 178 177 177 176 179 184
349 348 348 350 348 347 352 350 352 4 6 5 6 7 5 356 341 320 318 306 291 286 270 263 261 254 256 257 253 259 274 277 275 263 214 195 196 195 201 209 209 202 194 196 202 191 201 229 225 211 208 214 215 210 211 224 235 237 240 257 259 246 236 213 227 242 217 180 178 176 181 198 196 194 180 169 168 171 174 173 175 177 175 177 180 178 179 182
347 347 346 349 347 345 351 349 350 2 4 11 10 359 353 344 335 328 318 300 291 288 269 252 248 244 246 248 244 245 250 248 260 261 223 193 195 196 197 205 208 204 192 194 205 194 207 226 215 210 212 209 216 217 211 216 228 237 233 239 251 255 261 226 218 229 210 170 168 171 181 201 197 202 191 166 169 176 175 173 177 179 177 180 184 183 181 181
346 345 344 348 347 344 350 349 350 1 2 10 4 347 344 339 336 336 322 297 283 289 279 258 244 239 241 241 238 234 229 229 242 249 222 196 192 197 202 207 202 205 202 198 206 214 225 214 185 206 220 210 213 217 216 213 214 230 233 231 241 246 256 262 240 228 210 180 172 163 175 213 196 196 200 168 169 176 177 175 179 184 185 184 184 185 184 184
346 345 343 346 347 343 348 353 352 358 5 7 352 338 339 338 336 338 326 300 269 287 299 278 237 240 245 242 238 228 219 227 232 236 223 200 193 194 205 210 202 206 205 199 206 221 232 215 181 199 217 215 214 212 215 216 208 220 227 233 241 244 248 258 265 255 225 203 181 160 171 234 208 194 192 178 175 179 178 177 183 188 187 183 181 183 185 186
346 345 341 344 347 342 345 357 356 355 360 350 341 334 334 335 335 337 328 302 274 277 320 342 207 260 264 236 226 217 215 232 229 229 229 210 198 196 206 207 200 207 204 200 212 222 224 222 205 199 207 214 218 214 211 212 218 217 211 221 237 250 252 252 264 263 222 223 192 171 173 217 208 198 192 187 187 185 180 178 186 190 185 181 180 182 183 185
345 344 339 341 347 344 344 351 353 356 353 337 334 332 329 333 339 336 325 251 284 301 11 102 193 356 340 227 198 197 217 203 215 225 228 217 202 203 215 206 195 206 199 196 217 215 200 211 221 212 205 209 215 218 207 205 221 224 195 204 220 239 254 255 264 264 248 278 219 187 173 164 196 202 197 190 190 194 186 176 182 189 185 181 182 181 182 184
343 341 337 339 348 353 344 340 349 354 344 331 329 328 329 336 338 333 326 251 314 339 2 8 4 358 345 307 183 196 236 148 171 223 222 217 202 202 218 216 204 200 199 210 215 200 192 204 217 219 212 210 208 212 208 206 219 226 210 207 206 216 237 253 263 265 271 305 266 207 176 162 214 218 202 191 191 199 197 181 178 184 187 184 182 181 181 184
342 339 335 338 351 3 351 341 344 343 336 329 328 329 332 335 329 319 192 275 299 351 359 357 4 353 342 336 186 206 240 183 175 208 208 215 208 204 220 219 218 210 205 224 228 200 200 204 210 220 223 216 205 202 205 212 217 217 225 230 217 208 216 234 247 261 282 282 264 234 191 184 228 223 200 194 196 197 198 192 177 180 185 185 182 180 181 184
340 338 336 338 353 5 7 1 345 343 342 334 331 333 332 327 319 273 219 281 301 354 360 2 358 344 339 345 220 218 231 229 259 203 195 211 207 205 217 215 224 240 214 226 234 229 227 208 203 217 229 222 210 198 197 211 215 208 219 233 241 225 207 214 226 242 271 261 253 249 229 224 243 229 201 193 196 193 189 195 185 178 182 183 180 179 179 182
340 338 336 340 355 1 2 357 351 353 346 335 331 332 327 315 297 198 270 320 334 351 357 353 347 344 338 340 324 271 232 234 266 237 193 203 203 202 206 206 219 241 235 226 225 231 238 224 205 207 217 224 226 207 194 201 208 209 208 212 235 249 223 215 198 207 234 243 249 256 256 254 249 235 218 199 189 188 185 190 195 180 176 181 181 178 179 181
341 338 337 342 347 351 351 350 354 349 337 334 330 325 321 312 243 221 298 324 326 349 355 339 336 338 326 322 317 299 280 230 237 259 225 191 201 200 197 204 195 204 233 232 211 218 230 236 236 211 208 214 227 217 195 194 199 206 203 191 208 219 212 218 197 196 223 234 236 252 265 259 248 242 233 229 194 187 186 189 197 186 172 177 178 177 178 180
341 337 336 336 323 328 345 348 351 341 332 331 324 311 303 323 303 309 329 338 337 335 339 335 330 324 318 315 310 310 312 280 217 243 248 203 203 202 199 209 198 195 222 226 209 212 217 229 236 231 206 201 216 218 189 192 190 196 201 187 188 195 196 204 211 209 217 225 213 226 253 249 251 262 229 236 243 211 189 186 197 188 173 174 174 175 177 178
341 337 328 329 318 316 340 348 341 333 328 325 317 304 295 290 313 355 351 348 336 327 331 341 329 318 318 304 300 345 345 320 311 275 256 221 208 208 197 205 212 214 216 218 226 218 216 220 220 229 210 180 205 223 200 183 186 195 200 192 188 194 191 183 199 204 192 212 203 209 230 215 211 218 197 215 247 249 218 192 197 184 170 173 174 172 175 176
343 340 320 328 337 333 349 355 336 326 322 318 312 309 324 304 329 5 355 342 332 326 330 338 331 318 323 315 326 12 12 328 340 335 284 237 217 219 200 196 210 220 211 210 227 218 224 232 208 219 227 188 193 215 214 188 188 193 192 204 202 185 173 166 192 180 150 169 204 209 231 205 219 236 203 195 212 241 249 212 203 180 164 170 172 170 173 176
343 345 331 334 343 344 356 347 333 327 314 306 304 330 335 327 340 350 347 340 327 321 324 330 333 320 324 340 349 359 356 339 348 350 320 302 257 219 207 192 197 213 224 224 233 225 226 233 197 199 223 220 196 198 212 204 187 174 191 210 190 160 186 208 204 166 144 202 214 215 252 253 255 269 249 215 196 215 235 228 221 182 163 167 169 169 173 176
344 350 354 359 2 10 350 329 327 325 304 296 314 323 308 308 329 336 340 338 320 315 320 322 339 338 329 338 342 343 345 344 350 354 332 322 308 240 235 207 182 201 224 233 244 246 244 241 207 193 209 223 209 196 209 215 202 176 189 196 147 152 211 216 207 181 173 214 208 202 226 219 208 237 241 233 223 215 216 219 229 192 165 166 168 170 173 174
344 350 349 359 17 351 328 326 324 308 291 282 288 295 302 303 317 335 338 335 319 313 319 310 331 347 330 327 330 337 342 339 342 342 325 324 341 1 0 340 337 333 274 257 250 245 260 261 220 204 202 212 210 198 204 216 217 209 174 163 159 194 207 184 202 200 180 212 221 207 217 210 200 204 203 216 226 225 212 206 213 200 168 167 168 171 175 173
347 348 336 5 24 343 328 334 321 297 282 264 282 308 328 316 327 338 327 323 321 315 317 314 326 335 325 324 323 336 347 336 334 335 328 337 320 333 7 15 344 345 340 316 282 244 255 265 236 217 198 191 198 200 200 205 214 218 182 163 182 205 183 170 202 205 172 198 213 216 219 213 219 204 189 202 213 215 208 194 201 196 172 169 169 171 174 174
353 343 309 355 15 352 337 333 311 288 270 281 313 320 318 317 338 333 318 320 327 310 310 313 319 319 316 322 321 333 351 334 332 328 304 321 319 321 4 15 345 336 337 327 311 270 250 241 258 242 200 185 191 202 201 191 196 211 201 179 185 185 162 176 204 208 197 198 195 214 231 234 237 209 187 193 199 200 195 182 191 191 172 172 174 171 170 173
356 327 288 340 359 338 333 331 310 285 215 271 305 330 327 322 326 320 319 330 324 303 309 311 311 318 315 320 327 338 341 327 326 322 299 317 331 335 353 353 345 338 334 329 329 328 280 233 250 261 222 196 195 196 196 190 189 203 208 188 182 180 172 183 204 209 203 223 223 206 250 255 248 234 190 186 190 191 184 176 183 191 180 176 176 176 172 173
352 311 298 341 350 338 338 331 303 303 325 324 323 336 333 318 309 319 330 332 320 311 319 314 313 324 322 325 333 332 328 321 316 313 319 327 323 325 336 338 343 343 335 325 326 333 328 264 236 246 254 239 209 193 186 187 188 197 213 210 183 181 181 179 193 195 189 225 250 244 278 265 266 279 198 178 180 172 160 167 176 191 198 185 177 180 177 175
333 310 316 346 352 348 351 320 299 320 350 333 326 331 329 315 317 337 333 323 318 321 325 320 324 330 329 330 328 319 316 320 320 325 333 326 317 323 328 334 343 343 335 332 335 338 337 308 237 242 254 276 248 200 178 180 186 195 212 214 204 192 185 177 177 173 171 201 219 225 267 262 290 326 61 144 152 143 146 171 180 189 210 193 173 178 179 176
314 305 312 339 348 347 346 319 315 320 326 327 331 336 326 314 326 341 329 318 311 314 322 323 330 334 331 327 322 319 326 332 327 332 334 319 314 322 324 331 343 339 326 331 334 329 321 304 307 275 235 253 250 198 175 178 186 196 204 206 220 207 180 177 184 162 176 200 190 179 243 256 282 339 39 89 124 133 150 179 184 185 204 189 164 170 176 173
320 305 305 326 336 338 339 345 340 331 335 339 338 333 320 317 333 331 316 308 303 316 334 323 324 327 320 317 314 316 334 352 336 322 324 313 309 316 320 328 332 321 312 323 327 318 291 270 298 284 228 229 227 190 177 179 182 197 198 197 216 219 190 178 179 163 195 207 188 178 219 260 288 17 57 72 108 137 161 176 177 177 191 190 163 166 172 172
325 321 321 332 337 337 341 350 352 354 353 343 334 325 318 320 325 320 316 312 312 330 332 316 322 323 313 317 318 319 341 358 338 307 309 317 317 313 316 319 317 310 314 326 331 326 277 254 267 252 245 243 254 274 212 176 174 190 199 194 205 218 210 179 163 181 191 181 195 200 183 212 262 81 96 122 147 154 155 141 124 132 144 171 169 166 170 174
324 325 332 340 341 336 341 349 353 353 330 319 320 319 321 321 315 319 329 322 322 334 330 319 326 320 316 327 326 327 342 340 315 308 312 318 318 311 315 316 309 310 320 330 332 328 288 274 280 262 264 256 262 288 269 184 174 180 193 200 197 205 216 206 175 183 166 139 203 219 161 163 221 196 170 194 175 150 135 113 96 101 103 145 174 169 171 177
335 319 323 337 342 332 335 334 333 326 311 312 320 317 321 320 311 320 331 314 317 341 360 329 319 312 316 331 330 324 334 326 308 319 323 322 327 325 322 320 316 326 337 332 330 331 294 288 315 302 295 287 273 282 283 229 179 176 188 207 201 195 207 215 192 168 157 146 209 212 158 162 213 205 201 214 177 143 124 107 98 98 98 124 162 164 163 170
327 310 313 333 331 308 305 303 304 306 308 314 315 309 323 329 323 329 333 314 313 341 359 316 308 313 319 328 328 322 332 332 320 327 322 316 327 332 327 321 322 345 355 334 324 329 310 313 337 326 306 298 293 292 298 301 256 172 185 206 214 200 198 210 215 179 163 167 195 184 160 178 203 183 193 209 123 116 115 107 95 92 92 98 126 137 133 143
312 308 311 325 319 301 297 298 302 308 315 314 308 316 331 325 317 318 317 313 310 320 330 309 304 313 315 319 322 318 326 327 311 310 307 309 325 325 323 321 315 329 340 334 322 322 318 328 335 330 316 294 301 313 310 298 283 286 199 204 213 211 194 200 216 209 171 172 192 170 149 183 190 136 131 84 88 96 102 99 87 91 101 102 108 114 112 122
296 296 303 314 314 303 303 307 309 307 308 308 311 332 331 320 323 318 304 308 312 312 320 313 306 306 305 309 316 313 317 314 292 287 289 288 289 279 275 293 303 314 324 324 319 320 320 326 331 337 340 316 322 315 297 298 303 312 291 220 207 216 201 192 204 219 190 169 182 156 130 195 185 108 90 73 78 79 76 75 71 76 87 90 99 119 126 129
296 295 301 306 301 296 301 306 306 300 301 306 312 325 327 329 336 331 315 315 319 316 316 307 298 298 303 310 312 312 315 307 293 287 282 278 276 266 257 269 279 286 299 308 311 310 313 321 333 344 334 320 339 307 278 307 336 298 267 240 159 359 261 196 192 213 209 166 170 168 177 206 170 109 97 81 73 71 68 70 69 68 65 62 69 103 137 140
Height
1514 1513 1511 1509 1508 1506 1505 1503 1501 1500 1498 1496 1494 1493 1491 1490 1489 1488 1486 1485 1484 1483 1482 1481 1480 1480 1479 1479 1477 1476 1475 1474 1474 1474 1469 1465 1469 1473 1474 1476 1478 1480 1482 1484 1486 1488 1489 1491 1493 1495 1498 1499 1500 1498 1498 1497 1497 1500 1502 1508 1510 1506 1501 1493 1489 1489 1490 1489 1485 1484 1486 1492 1493 1488 1487 1490 1494 1493 1494 1497 1498 1501 1503 1506 1510 1514 1517 1519
1514 1513 1511 1509 1507 1505 1504 1502 1500 1499 1497 1495 1493 1491 1489 1488 1487 1486 1485 1483 1482 1481 1481 1479 1479 1478 1477 1477 1476 1475 1474 1472 1471 1467 1462 1464 1468 1469 1471 1473 1476 1478 1479 1481 1483 1485 1488 1489 1492 1494 1496 1497 1497 1496 1496 1495 1494 1496 1500 1506 1505 1498 1491 1485 1484 1483 1484 1486 1483 1482 1485 1488 1487 1485 1487 1489 1493 1492 1493 1496 1499 1502 1505 1508 1511 1514 1518 1519
1514 1512 1510 1509 1507 1505 1503 1501 1500 1498 1496 1494 1492 1490 1488 1487 1486 1484 1483 1482 1480 1480 1479 1478 1477 1476 1476 1475 1474 1473 1472 1471 1467 1460 1457 1462 1466 1466 1469 1472 1473 1476 1477 1479 1481 1483 1486 1488 1490 1493 1494 1495 1494 1494 1493 1492 1491 1490 1495 1503 1498 1488 1485 1482 1481 1482 1482 1483 1481 1481 1482 1483 1482 1482 1485 1488 1491 1492 1492 1495 1497 1501 1505 1508 1511 1514 1517 1519
1514 1512 1510 1508 1506 1504 1502 1500 1499 1497 1495 1493 1490 1488 1487 1485 1484 1483 1481 1480 1479 1478 1477 1476 1475 1475 1474 1474 1473 1472 1472 1470 1463 1457 1456 1458 1460 1463 1466 1469 1471 1473 1475 1477 1480 1482 1485 1487 1489 1491 1492 1492 1491 1491 1489 1489 1488 1486 1490 1495 1488 1482 1484 1483 1481 1481 1481 1482 1482 1481 1481 1482 1482 1482 1484 1485 1492 1495 1492 1493 1495 1498 1503 1506 1510 1513 1516 1518
1514 1512 1510 1508 1506 1503 1502 1500 1498 1496 1494 1492 1489 1487 1485 1483 1482 1481 1480 1478 1477 1476 1475 1475 1474 1473 1473 1472 1472 1471 1473 1470 1460 1455 1456 1455 1457 1459 1462 1466 1469 1471 1473 1476 1478 1481 1483 1485 1487 1488 1489 1489 1488 1489 1486 1483 1484 1483 1484 1483 1479 1480 1484 1481 1479 1480 1481 1482 1482 1482 1482 1482 1481 1482 1482 1483 1491 1494 1491 1493 1495 1497 1501 1504 1508 1512 1515 1518
1514 1511 1509 1507 1505 1503 1501 1499 1497 1495 1492 1490 1488 1486 1484 1482 1480 1479 1478 1477 1475 1474 1474 1473 1472 1472 1471 1471 1471 1471 1472 1466 1456 1455 1456 1455 1456 1458 1461 1464 1466 1469 1472 1474 1476 1478 1481 1482 1484 1485 1485 1485 1485 1485 1482 1480 1480 1483 1481 1476 1476 1477 1479 1478 1477 1479 1480 1481 1482 1481 1481 1478 1479 1482 1481 1481 1485 1488 1490 1493 1496 1499 1501 1504 1507 1511 1514 1516
1513 1511 1509 1507 1505 1502 1500 1498 1496 1493 1491 1489 1487 1484 1483 1480 1479 1477 1476 1475 1474 1472 1472 1471 1471 1470 1469 1470 1469 1469 1469 1460 1452 1455 1455 1455 1457 1457 1461 1463 1465 1468 1470 1472 1474 1476 1478 1479 1480 1480 1482 1483 1482 1480 1479 1477 1475 1480 1479 1473 1473 1474 1475 1476 1476 1477 1478 1480 1479 1478 1479 1476 1481 1484 1480 1479 1482 1485 1489 1492 1496 1500 1503 1506 1508 1510 1513 1515
1513 1511 1509 1506 1504 1501 1499 1497 1495 1492 1490 1488 1485 1483 1481 1479 1477 1476 1474 1473 1472 1471 1471 1470 1469 1469 1468 1469 1468 1469 1466 1454 1450 1453 1454 1455 1457 1458 1460 1462 1464 1466 1467 1469 1471 1473 1475 1476 1477 1478 1479 1479 1479 1477 1475 1475 1473 1473 1475 1471 1470 1472 1473 1473 1474 1475 1475 1477 1476 1476 1477 1475 1479 1481 1477 1478 1481 1484 1489 1493 1496 1500 1503 1506 1508 1510 1513 1515
1513 1511 1508 1506 1503 1501 1498 1496 1494 1491 1489 1487 1484 1482 1479 1477 1475 1474 1473 1471 1470 1470 1469 1468 1468 1467 1468 1467 1468 1468 1458 1447 1449 1452 1454 1455 1456 1458 1459 1460 1462 1464 1465 1467 1469 1472 1473 1473 1474 1475 1476 1475 1476 1474 1472 1475 1474 1468 1468 1467 1466 1468 1469 1471 1472 1472 1473 1474 1475 1476 1477 1474 1475 1477 1479 1479 1481 1484 1488 1493 1496 1499 1503 1505 1508 1511 1512 1515
1512 1510 1508 1505 1502 1500 1497 1495 1493 1490 1488 1485 1483 1480 1478 1475 1474 1472 1471 1469 1469 1468 1467 1467 1466 1466 1467 1465 1468 1465 1450 1445 1449 1451 1452 1454 1455 1457 1458 1459 1460 1461 1463 1465 1467 1469 1470 1471 1472 1473 1474 1473 1472 1472 1469 1471 1469 1462 1461 1461 1461 1463 1465 1468 1470 1469 1471 1471 1472 1477 1482 1479 1473 1475 1481 1481 1481 1486 1489 1493 1496 1498 1501 1504 1507 1510 1512 1514
1512 1509 1507 1504 1502 1499 1496 1494 1491 1489 1486 1484 1481 1479 1476 1474 1472 1470 1469 1468 1467 1466 1466 1465 1465 1465 1464 1464 1466 1458 1445 1446 1449 1448 1451 1452 1453 1455 1456 1457 1459 1460 1461 1463 1465 1466 1468 1469 1470 1473 1473 1471 1470 1469 1466 1465 1463 1459 1459 1459 1458 1459 1462 1465 1466 1467 1468 1470 1469 1473 1480 1479 1475 1477 1478 1479 1481 1485 1488 1492 1495 1498 1500 1503 1506 1509 1511 1513
1511 1509 1506 1503 1501 1498 1496 1493 1490 1488 1485 1482 1480 1477 1475 1472 1470 1468 1467 1466 1465 1464 1464 1463 1463 1462 1462 1462 1456 1448 1444 1446 1447 1449 1451 1451 1452 1453 1454 1456 1457 1458 1459 1461 1463 1464 1467 1467 1468 1470 1469 1469 1469 1469 1466 1461 1460 1458 1457 1461 1459 1458 1463 1463 1462 1464 1465 1467 1464 1466 1481 1484 1478 1478 1476 1476 1481 1483 1487 1491 1494 1497 1500 1502 1505 1507 1510 1512
1511 1508 1506 1503 1500 1497 1495 1492 1489 1486 1483 1481 1478 1475 1473 1470 1469 1467 1465 1464 1463 1462 1462 1461 1461 1460 1461 1455 1444 1442 1445 1445 1446 1448 1450 1451 1452 1452 1454 1455 1455 1457 1458 1459 1461 1463 1466 1466 1467 1467 1466 1466 1466 1467 1464 1458 1458 1458 1456 1460 1463 1465 1466 1461 1459 1461 1462 1464 1459 1466 1490 1492 1478 1475 1474 1475 1478 1481 1486 1489 1492 1495 1498 1501 1503 1506 1508 1511
1510 1508 1505 1503 1500 1497 1494 1491 1488 1485 1482 1479 1477 1474 1471 1469 1468 1466 1464 1463 1461 1461 1460 1460 1459 1458 1458 1447 1438 1441 1443 1443 1444 1443 1445 1449 1451 1451 1453 1454 1455 1456 1457 1459 1461 1463 1464 1465 1466 1466 1465 1464 1462 1463 1462 1458 1458 1459 1459 1460 1464 1473 1470 1457 1454 1459 1460 1461 1455 1464 1488 1488 1475 1472 1471 1472 1475 1478 1483 1486 1489 1493 1495 1499 1501 1504 1507 1509
1510 1507 1504 1502 1499 1496 1493 1490 1487 1484 1481 1478 1475 1473 1470 1469 1467 1465 1463 1461 1460 1459 1458 1458 1457 1457 1455 1444 1437 1439 1440 1440 1439 1439 1442 1445 1448 1450 1450 1453 1455 1456 1457 1459 1460 1462 1463 1464 1464 1463 1463 1463 1462 1464 1465 1463 1460 1458 1467 1471 1467 1471 1471 1456 1450 1453 1458 1458 1453 1465 1483 1480 1470 1468 1466 1469 1472 1474 1478 1482 1486 1489 1493 1496 1499 1502 1505 1507
1509 1506 1503 1501 1498 1495 1492 1489 1487 1483 1481 1477 1474 1472 1470 1468 1466 1463 1461 1460 1459 1458 1457 1458 1456 1457 1454 1442 1435 1436 1436 1436 1436 1439 1441 1441 1446 1448 1449 1452 1453 1455 1457 1458 1460 1461 1461 1461 1461 1461 1461 1463 1463 1466 1470 1472 1468 1461 1468 1475 1469 1469 1472 1463 1451 1446 1450 1454 1453 1463 1478 1476 1466 1462 1463 1465 1468 1471 1474 1478 1482 1486 1489 1493 1496 1499 1502 1505
1509 1505 1502 1500 1498 1495 1492 1489 1486 1483 1480 1477 1474 1472 1470 1468 1464 1462 1460 1460 1460 1457 1457 1457 1456 1457 1450 1437 1434 1434 1434 1434 1435 1439 1439 1439 1444 1446 1448 1449 1451 1454 1456 1457 1459 1459 1459 1459 1459 1460 1460 1461 1461 1466 1476 1481 1478 1469 1466 1470 1468 1465 1468 1468 1458 1444 1443 1452 1456 1460 1469 1470 1461 1458 1462 1463 1464 1469 1472 1476 1479 1483 1486 1489 1492 1495 1499 1502
1508 1505 1502 1500 1497 1494 1491 1489 1486 1483 1480 1477 1474 1471 1469 1467 1464 1461 1460 1459 1459 1458 1458 1456 1458 1458 1443 1431 1434 1433 1432 1435 1435 1436 1438 1439 1441 1444 1446 1447 1449 1452 1453 1455 1455 1455 1457 1455 1455 1459 1459 1460 1460 1464 1475 1477 1474 1472 1468 1469 1468 1464 1463 1464 1457 1444 1441 1451 1457 1460 1466 1465 1460 1458 1460 1462 1465 1468 1471 1475 1478 1480 1483 1486 1489 1492 1495 1498
1507 1505 1502 1499 1496 1494 1491 1488 1485 1483 1480 1477 1475 1472 1469 1465 1463 1461 1460 1460 1460 1459 1458 1455 1456 1453 1438 1428 1431 1431 1430 1433 1434 1433 1435 1437 1440 1441 1443 1445 1447 1449 1451 1452 1452 1451 1453 1454 1455 1458 1457 1458 1457 1458 1464 1465 1464 1465 1462 1462 1465 1465 1460 1454 1448 1436 1435 1449 1455 1458 1464 1462 1462 1463 1458 1458 1462 1465 1469 1472 1475 1478 1481 1484 1487 1489 1492 1495
1506 1504 1501 1498 1495 1493 1490 1488 1485 1483 1480 1477 1473 1469 1466 1463 1460 1459 1459 1460 1460 1458 1455 1452 1450 1446 1436 1428 1426 1428 1429 1428 1429 1431 1431 1434 1438 1439 1440 1442 1443 1445 1446 1448 1450 1447 1449 1457 1455 1452 1451 1452 1453 1453 1455 1456 1457 1457 1456 1457 1457 1459 1458 1449 1441 1431 1427 1445 1453 1451 1456 1457 1459 1462 1456 1454 1457 1461 1465 1468 1471 1475 1478 1481 1484 1486 1489 1492
1505 1503 1500 1497 1494 1492 1490 1487 1485 1483 1480 1477 1474 1470 1469 1468 1467 1463 1457 1452 1452 1453 1449 1444 1443 1439 1435 1431 1424 1427 1432 1426 1424 1426 1429 1431 1434 1437 1437 1437 1439 1441 1441 1442 1446 1445 1449 1455 1447 1443 1445 1446 1447 1449 1452 1454 1454 1454 1455 1456 1454 1454 1453 1443 1437 1429 1423 1440 1450 1445 1451 1454 1451 1454 1453 1451 1454 1458 1461 1464 1467 1470 1474 1477 1480 1483 1486 1489
1505 1502 1499 1497 1493 1491 1489 1487 1485 1483 1481 1478 1476 1475 1475 1475 1475 1472 1463 1448 1441 1445 1441 1434 1434 1430 1428 1429 1423 1427 1435 1431 1424 1422 1425 1429 1430 1432 1433 1433 1435 1437 1437 1440 1444 1448 1451 1446 1437 1438 1441 1442 1445 1445 1449 1452 1452 1454 1454 1456 1457 1450 1447 1440 1432 1426 1422 1435 1446 1443 1449 1453 1445 1445 1447 1448 1451 1454 1456 1459 1462 1466 1470 1474 1477 1480 1483 1486
1505 1501 1499 1496 1493 1491 1488 1486 1485 1483 1481 1479 1478 1477 1476 1476 1474 1473 1469 1454 1437 1430 1426 1421 1421 1420 1420 1422 1421 1425 1431 1430 1425 1420 1421 1425 1425 1427 1429 1429 1432 1433 1435 1438 1441 1447 1447 1435 1431 1436 1437 1439 1444 1443 1446 1450 1451 1453 1452 1456 1457 1447 1448 1449 1436 1426 1423 1429 1438 1441 1447 1449 1444 1442 1442 1443 1446 1449 1451 1453 1457 1462 1465 1469 1472 1475 1478 1481
1505 1501 1499 1495 1493 1490 1488 1487 1484 1483 1481 1479 1479 1478 1476 1475 1472 1470 1466 1458 1440 1419 1409 1409 1412 1412 1411 1413 1417 1420 1423 1424 1423 1418 1417 1420 1421 1423 1425 1424 1428 1431 1431 1432 1435 1439 1435 1426 1427 1433 1434 1437 1442 1443 1444 1449 1452 1451 1448 1451 1452 1445 1445 1445 1436 1427 1425 1427 1429 1438 1453 1452 1445 1446 1445 1440 1442 1444 1445 1447 1451 1456 1459 1463 1467 1471 1474 1476
1504 1502 1498 1495 1493 1489 1488 1487 1484 1483 1482 1480 1479 1477 1475 1473 1471 1470 1464 1458 1446 1417 1401 1405 1409 1408 1406 1410 1415 1416 1418 1418 1416 1414 1414 1416 1417 1419 1421 1420 1424 1428 1428 1428 1432 1434 1429 1422 1424 1430 1433 1434 1438 1441 1440 1444 1450 1450 1445 1443 1443 1441 1439 1437 1434 1433 1438 1443 1430 1434 1464 1465 1446 1445 1446 1440 1441 1443 1443 1444 1447 1451 1454 1457 1462 1466 1470 1473
1504 1502 1498 1495 1492 1488 1487 1486 1484 1483 1481 1479 1479 1475 1475 1472 1470 1471 1465 1463 1451 1418 1403 1407 1407 1405 1405 1408 1411 1417 1420 1412 1408 1412 1411 1413 1414 1415 1419 1417 1417 1422 1423 1424 1429 1427 1423 1420 1421 1426 1431 1432 1435 1437 1434 1436 1447 1449 1440 1436 1437 1437 1437 1435 1435 1438 1447 1449 1430 1426 1456 1467 1451 1443 1440 1437 1439 1440 1440 1442 1444 1447 1450 1453 1456 1460 1464 1468
1504 1501 1498 1495 1493 1489 1486 1485 1485 1484 1480 1480 1478 1475 1474 1471 1470 1469 1467 1470 1451 1414 1405 1410 1408 1406 1406 1405 1408 1416 1418 1406 1405 1409 1405 1410 1412 1412 1417 1415 1414 1417 1415 1421 1429 1420 1416 1421 1422 1422 1426 1430 1433 1433 1429 1429 1441 1444 1431 1429 1435 1435 1437 1435 1435 1440 1440 1437 1430 1423 1436 1456 1457 1444 1433 1431 1437 1438 1437 1440 1442 1444 1447 1449 1451 1455 1458 1462
1504 1501 1498 1495 1494 1491 1487 1486 1485 1483 1483 1482 1478 1477 1474 1470 1471 1467 1471 1477 1446 1411 1410 1413 1410 1410 1408 1407 1406 1408 1405 1399 1403 1404 1400 1407 1409 1407 1412 1410 1412 1415 1410 1417 1425 1414 1409 1418 1419 1419 1424 1426 1426 1425 1422 1425 1434 1434 1423 1423 1429 1431 1434 1433 1434 1440 1435 1437 1445 1433 1429 1451 1458 1440 1428 1429 1436 1440 1437 1436 1438 1440 1443 1446 1447 1450 1453 1456
1503 1500 1497 1495 1493 1492 1490 1488 1486 1484 1484 1482 1479 1478 1472 1471 1471 1467 1477 1478 1440 1414 1418 1415 1413 1415 1412 1409 1406 1404 1402 1398 1399 1398 1398 1404 1404 1404 1408 1406 1409 1412 1409 1410 1415 1412 1407 1409 1412 1415 1419 1419 1417 1416 1416 1421 1427 1424 1419 1420 1422 1425 1429 1431 1436 1439 1438 1446 1453 1440 1432 1450 1456 1440 1432 1434 1436 1437 1434 1430 1431 1433 1436 1441 1443 1446 1449 1453
1502 1499 1497 1495 1493 1492 1490 1489 1488 1486 1484 1481 1479 1476 1472 1472 1471 1473 1484 1471 1436 1425 1427 1421 1422 1422 1418 1415 1410 1406 1404 1400 1395 1393 1396 1399 1401 1403 1404 1406 1408 1409 1409 1407 1409 1409 1402 1401 1404 1406 1409 1408 1408 1409 1409 1414 1417 1416 1419 1424 1426 1426 1426 1430 1433 1436 1447 1455 1449 1437 1431 1443 1454 1443 1431 1430 1426 1425 1426 1426 1426 1427 1431 1436 1438 1442 1445 1449
1501 1498 1496 1494 1492 1491 1490 1489 1488 1486 1484 1482 1479 1475 1474 1471 1469 1480 1481 1454 1437 1442 1436 1430 1431 1427 1424 1424 1419 1411 1404 1402 1396 1394 1398 1399 1401 1403 1403 1408 1410 1412 1415 1411 1408 1407 1403 1403 1401 1397 1399 1400 1402 1405 1404 1405 1409 1414 1421 1427 1435 1435 1432 1437 1438 1441 1458 1461 1443 1431 1427 1437 1451 1443 1424 1417 1412 1410 1416 1420 1420 1422 1427 1432 1435 1439 1442 1446
1500 1497 1495 1494 1493 1491 1490 1489 1486 1485 1484 1483 1480 1477 1476 1475 1475 1479 1469 1449 1451 1459 1450 1443 1440 1433 1429 1426 1421 1413 1405 1402 1397 1395 1398 1399 1401 1401 1402 1406 1409 1418 1423 1414 1411 1411 1407 1403 1397 1394 1394 1394 1402 1408 1407 1405 1407 1415 1422 1429 1444 1450 1448 1453 1454 1451 1458 1454 1436 1428 1429 1436 1441 1429 1415 1411 1407 1404 1406 1407 1410 1413 1419 1426 1430 1435 1438 1442
1499 1496 1494 1493 1492 1491 1490 1488 1485 1486 1485 1482 1481 1476 1476 1484 1483 1473 1465 1463 1467 1464 1456 1453 1446 1437 1434 1427 1420 1413 1406 1401 1397 1395 1395 1397 1400 1398 1399 1400 1400 1412 1418 1414 1415 1415 1411 1405 1396 1395 1392 1387 1395 1406 1412 1411 1410 1415 1421 1428 1443 1452 1460 1466 1461 1454 1455 1448 1433 1427 1431 1438 1435 1420 1408 1406 1403 1399 1398 1399 1402 1405 1411 1418 1422 1428 1433 1436
1498 1496 1494 1493 1492 1490 1489 1487 1486 1487 1485 1482 1480 1476 1479 1487 1480 1469 1469 1471 1468 1461 1457 1456 1448 1438 1433 1428 1422 1419 1417 1408 1399 1400 1396 1395 1401 1399 1398 1399 1397 1402 1408 1413 1413 1410 1417 1414 1397 1392 1391 1385 1389 1396 1401 1404 1407 1410 1409 1417 1430 1436 1448 1459 1456 1454 1453 1445 1435 1432 1435 1437 1433 1418 1402 1398 1396 1393 1395 1397 1398 1400 1405 1413 1418 1423 1428 1432
1497 1495 1494 1492 1490 1490 1488 1488 1487 1487 1486 1482 1480 1480 1484 1484 1476 1473 1474 1469 1466 1462 1458 1457 1452 1443 1434 1427 1424 1427 1432 1424 1412 1410 1402 1394 1399 1397 1395 1397 1397 1399 1406 1414 1410 1401 1410 1407 1387 1383 1384 1381 1386 1387 1385 1395 1407 1406 1401 1412 1421 1418 1426 1438 1439 1438 1439 1442 1440 1435 1431 1423 1415 1405 1393 1394 1396 1392 1393 1395 1396 1398 1402 1409 1416 1420 1425 1429
1495 1494 1493 1491 1489 1489 1489 1489 1488 1487 1485 1482 1482 1485 1485 1481 1476 1476 1474 1470 1470 1466 1461 1459 1456 1451 1444 1438 1436 1435 1435 1431 1425 1422 1412 1400 1395 1390 1390 1391 1392 1397 1401 1406 1405 1398 1404 1399 1381 1381 1382 1376 1380 1382 1379 1390 1402 1403 1404 1411 1408 1403 1413 1429 1434 1427 1430 1448 1445 1432 1429 1421 1414 1409 1396 1394 1397 1393 1392 1393 1394 1397 1399 1405 1413 1417 1421 1425
1494 1492 1492 1491 1490 1489 1490 1489 1487 1487 1485 1483 1485 1486 1481 1478 1476 1474 1472 1472 1472 1468 1466 1466 1461 1458 1457 1453 1449 1444 1439 1437 1435 1434 1428 1417 1402 1391 1390 1387 1386 1394 1395 1397 1399 1393 1397 1397 1380 1377 1383 1375 1371 1377 1377 1378 1385 1398 1405 1402 1398 1403 1410 1421 1435 1436 1441 1455 1444 1428 1430 1429 1427 1422 1403 1396 1400 1396 1393 1392 1391 1394 1397 1401 1407 1412 1416 1419
1494 1492 1491 1490 1488 1488 1489 1488 1486 1486 1484 1483 1484 1482 1477 1474 1472 1472 1472 1472 1472 1468 1469 1470 1465 1462 1463 1460 1454 1449 1448 1447 1444 1443 1438 1428 1414 1403 1403 1402 1396 1399 1398 1397 1397 1388 1389 1398 1383 1370 1376 1373 1367 1377 1386 1378 1374 1384 1391 1389 1398 1417 1421 1420 1431 1440 1448 1455 1442 1427 1426 1423 1422 1417 1403 1398 1399 1395 1392 1390 1389 1392 1395 1398 1402 1406 1411 1415
1496 1493 1490 1489 1488 1487 1487 1487 1485 1484 1483 1482 1482 1479 1476 1474 1472 1471 1471 1471 1471 1470 1469 1469 1466 1465 1464 1462 1458 1453 1455 1455 1451 1450 1445 1437 1426 1414 1414 1419 1413 1408 1405 1401 1399 1388 1384 1397 1391 1367 1363 1369 1371 1379 1389 1386 1377 1376 1382 1385 1392 1406 1415 1416 1420 1424 1434 1444 1439 1431 1426 1417 1407 1397 1392 1392 1390 1388 1389 1387 1387 1388 1391 1395 1399 1402 1407 1411
1500 1496 1492 1489 1488 1487 1486 1485 1484 1483 1482 1480 1479 1477 1475 1474 1473 1472 1471 1470 1470 1470 1470 1468 1466 1467 1464 1462 1460 1457 1459 1459 1456 1456 1450 1441 1435 1423 1417 1425 1424 1416 1409 1401 1395 1387 1380 1390 1395 1374 1360 1368 1375 1374 1376 1381 1381 1382 1388 1393 1395 1397 1401 1408 1413 1411 1418 1431 1433 1431 1429 1412 1388 1376 1378 1381 1379 1379 1380 1381 1383 1384 1385 1391 1395 1399 1404 1407
1503 1500 1493 1489 1488 1487 1485 1484 1480 1479 1478 1477 1476 1475 1474 1474 1473 1473 1471 1470 1470 1469 1468 1467 1466 1465 1463 1461 1461 1459 1461 1462 1459 1456 1451 1444 1444 1438 1425 1427 1432 1426 1417 1406 1397 1393 1388 1386 1389 1381 1370 1370 1368 1360 1360 1367 1373 1379 1385 1389 1391 1395 1400 1413 1421 1411 1407 1418 1420 1423 1427 1407 1375 1364 1367 1369 1369 1370 1370 1375 1379 1380 1382 1387 1391 1395 1400 1403
1507 1502 1493 1489 1489 1485 1483 1483 1478 1475 1475 1475 1475 1475 1475 1474 1472 1472 1472 1472 1471 1469 1467 1466 1465 1464 1463 1462 1461 1460 1461 1462 1460 1456 1453 1448 1448 1446 1436 1433 1437 1435 1430 1422 1409 1402 1396 1386 1383 1381 1374 1367 1358 1351 1353 1359 1363 1371 1377 1379 1382 1387 1394 1410 1422 1413 1407 1412 1408 1411 1421 1402 1370 1358 1357 1357 1360 1363 1365 1370 1374 1377 1380 1383 1387 1392 1396 1399
1510 1502 1491 1489 1490 1486 1484 1483 1479 1476 1476 1476 1475 1475 1475 1474 1472 1472 1473 1473 1473 1470 1468 1468 1466 1465 1465 1463 1463 1462 1460 1462 1461 1456 1456 1452 1445 1443 1441 1440 1440 1436 1432 1428 1415 1406 1399 1387 1381 1379 1371 1363 1355 1348 1348 1353 1361 1372 1375 1372 1375 1381 1384 1393 1401 1401 1406 1412 1408 1414 1422 1402 1370 1355 1351 1352 1357 1361 1364 1369 1372 1374 1377 1379 1382 1387 1393 1398
1509 1502 1493 1491 1490 1488 1488 1486 1482 1479 1478 1477 1477 1477 1477 1474 1472 1473 1474 1474 1473 1471 1470 1469 1468 1467 1467 1465 1465 1462 1460 1464 1464 1459 1459 1457 1447 1443 1442 1442 1442 1439 1436 1433 1426 1423 1415 1399 1393 1392 1385 1379 1372 1363 1360 1359 1362 1370 1372 1370 1371 1374 1377 1384 1388 1393 1404 1408 1405 1415 1422 1400 1373 1360 1355 1355 1360 1363 1365 1367 1370 1371 1373 1376 1378 1382 1390 1397
1507 1502 1497 1494 1492 1491 1491 1489 1487 1484 1481 1480 1481 1482 1479 1475 1475 1476 1475 1473 1472 1471 1471 1470 1469 1468 1467 1465 1465 1462 1461 1466 1468 1464 1462 1459 1450 1443 1441 1441 1441 1439 1437 1434 1430 1429 1422 1408 1403 1404 1400 1395 1388 1377 1369 1364 1363 1366 1368 1369 1371 1371 1375 1383 1389 1399 1407 1403 1399 1408 1411 1395 1376 1367 1364 1363 1365 1367 1366 1365 1367 1369 1371 1375 1377 1379 1386 1393
1510 1505 1499 1496 1494 1492 1492 1491 1491 1489 1487 1486 1486 1484 1481 1479 1478 1476 1474 1473 1471 1470 1471 1471 1470 1469 1467 1465 1465 1463 1461 1465 1468 1466 1463 1460 1455 1446 1441 1441 1440 1437 1435 1432 1427 1425 1417 1403 1399 1400 1398 1393 1385 1371 1359 1355 1363 1369 1369 1369 1371 1370 1372 1378 1389 1399 1401 1399 1401 1400 1396 1393 1384 1374 1371 1368 1367 1369 1369 1366 1367 1368 1370 1374 1377 1380 1383 1389
1514 1510 1505 1502 1499 1495 1494 1493 1493 1494 1492 1490 1488 1484 1483 1483 1480 1477 1475 1474 1472 1471 1471 1470 1470 1470 1469 1467 1466 1464 1464 1465 1466 1466 1463 1461 1458 1450 1442 1438 1437 1436 1433 1429 1427 1424 1416 1405 1395 1391 1387 1381 1373 1364 1353 1349 1356 1363 1366 1368 1368 1368 1370 1376 1386 1390 1387 1397 1406 1393 1385 1393 1389 1377 1374 1371 1367 1369 1370 1368 1369 1368 1369 1372 1376 1379 1382 1385
1515 1514 1511 1509 1506 1502 1500 1498 1498 1498 1494 1490 1488 1485 1484 1484 1481 1479 1477 1475 1473 1472 1473 1473 1472 1471 1469 1469 1469 1467 1466 1466 1465 1465 1464 1462 1458 1453 1445 1435 1432 1434 1433 1429 1427 1426 1420 1407 1395 1388 1383 1372 1365 1360 1354 1352 1352 1354 1360 1364 1364 1366 1369 1374 1379 1378 1378 1392 1398 1387 1382 1390 1386 1376 1373 1370 1365 1367 1368 1368 1369 1368 1369 1372 1374 1378 1382 1386
1516 1514 1511 1511 1510 1507 1505 1503 1501 1498 1494 1491 1489 1486 1485 1485 1483 1482 1481 1478 1474 1473 1474 1475 1473 1471 1469 1469 1469 1468 1468 1469 1467 1466 1465 1463 1461 1459 1454 1443 1432 1430 1435 1433 1427 1427 1424 1410 1397 1394 1386 1372 1365 1361 1357 1356 1355 1355 1357 1359 1360 1362 1365 1369 1373 1372 1373 1380 1383 1381 1383 1383 1377 1372 1370 1366 1362 1363 1366 1369 1370 1370 1372 1375 1378 1381 1384 1388
1516 1515 1512 1512 1511 1508 1505 1503 1500 1498 1495 1493 1490 1486 1485 1485 1485 1484 1483 1481 1477 1474 1474 1474 1472 1471 1470 1468 1468 1468 1467 1467 1467 1465 1463 1463 1463 1462 1460 1455 1444 1435 1437 1438 1431 1428 1427 1416 1401 1396 1390 1377 1367 1363 1362 1361 1359 1359 1359 1357 1357 1360 1362 1367 1370 1369 1372 1377 1376 1378 1383 1381 1371 1366 1366 1365 1363 1365 1369 1371 1372 1373 1375 1379 1382 1385 1387 1390
1515 1515 1514 1513 1510 1506 1504 1502 1500 1499 1496 1493 1490 1488 1486 1485 1484 1484 1481 1478 1477 1475 1474 1474 1471 1469 1469 1468 1468 1467 1464 1464 1463 1461 1460 1460 1461 1461 1459 1457 1454 1446 1442 1441 1437 1432 1428 1419 1404 1400 1400 1387 1370 1368 1369 1363 1359 1363 1363 1359 1359 1362 1364 1364 1365 1366 1370 1374 1376 1380 1385 1381 1370 1363 1365 1367 1367 1370 1374 1374 1375 1377 1378 1382 1385 1387 1389 1392
1514 1513 1513 1513 1510 1506 1504 1502 1499 1498 1496 1493 1491 1491 1491 1489 1487 1487 1483 1477 1476 1475 1474 1474 1472 1469 1468 1468 1468 1466 1463 1462 1459 1457 1456 1456 1455 1456 1456 1454 1454 1453 1448 1444 1441 1436 1432 1425 1412 1410 1413 1397 1377 1374 1372 1368 1375 1377 1366 1358 1358 1362 1363 1361 1361 1363 1363 1366 1375 1381 1380 1373 1365 1364 1368 1371 1372 1374 1375 1375 1377 1380 1381 1384 1387 1388 1390 1393